Location: Beddau
(51.5575°N, 3.3561°W)
Time: 17:56:50
(UTC+00:00)

Okean 1-7 - Pass Details

Date: 03 March 2021
Orbit: 589 x 619 km, 82.5° (Epoch: 13 April)

Event Time Altitude Azimuth Distance (km) Brightness Sun altitude
Rises 19:33:16 0° 349° (N) 2,902 6.8 -15.6°
Reaches altitude 10° 19:35:31 10° 350° (N) 1,988 5.9 -16.0°
Maximum altitude 19:39:55 89° 70° (ENE) 619 3.0 -16.6°
Drops below altitude 10° 19:44:16 10° 171° (S) 1,955 5.4 -17.3°
Enters shadow 19:45:52 - 171° (S) 2,609 6.1 -17.6°
